CZ-4 DEB, 26196

Orbit data source: Space-Track

CZ-4 DEB, 26196 is space debris in SSO originally from a launch on Thu, 14 Oct 1999 UTC launched from the Taiyaun Space Center, China (TSC). Debris objects in space refer to the collection of defunct objects orbiting the Earth. Examples of debris include non-operational satellites, rocket bodies, and fragments generated from explosions, collisions, or faulty payload assembly.

Loading next visibility...
Identifier
26196, 1999-057CJ
Orbit
SSO
Country
Flag of CNCN / PRC
Related business
Manufacturer
Unknown
Mission
Spacecraft
Bus & Motor
Unknown
Mass
Unknown
Launch date (UTC)
1999-10-14 (26 years ago)
Launch vehicle
Unknown
Launch site
Taiyaun Space Center, China (TSC)
Object type
Payload
Rocket body
Debris
Shape & HBR
Unknown shape, 0.1 m
Radar Cross Section
Small (<0.1 m²)

Expand to show TLE details & history
Last TLE update: 18 hours ago

TLE from 18 hours ago
0 CZ-4 DEB
1 26196U 99057CJ  25351.25537844  .00000592  00000-0  40977-3 0  9994
2 26196  98.9093 253.2460 0336674 323.8292 159.9851 13.78690092291953
Epoch: 2025-12-17T06:07Z
TLE epoch observation values (Epoch: 2025-12-17T06:07:44.697Z)
Latitude
54.03831°
Longitude
-92.40351°
Altitude
1,210.743 km
Speed
7.138 km/s
True Right ascension
05h 42m 38s
True Declination
53° 53' 04"
Sunlit
Object was in full shadow at epoch
Visualization orbit readout
Latitude
Unknown
Longitude
Unknown
Altitude
Unknown
Speed
Unknown
Apparent Right ascension
Unknown
Apparent Declination
Unknown
Sunlit
N/A
Visualization observer readout
Local Sidereal Time
23:07:10
Azimuth
Unknown
Elevation
Unknown
Doppler factor
Unknown
Orbital elements
Apogee altitude
1,213.005 km
Perigee altitude
718.506 km
Semi-major axis
7,343.892 km
Eccentricity
0.03367
Inclination
98.9093°
RAAN
253.246°
Arg. of periapsis
323.8292°
True anomaly
161.25515°
Mean anomaly
159.9851°
Eccentric anomaly
160.62504°
Mean motion
3.44869 °/min
Orbital period
104.39 mins
BSTAR
0.00040977
Loading maneuver chart data...
Computing Atmospheric mass density...
Loading historical data...
Loading historical data...
Loading historical data...
Loading historical data...
Loading historical data...
Loading historical data...
Loading historical data...

Documentation

Showing up to 5 results
|